TimeEDT,TemperatureF,Dew PointF,Humidity,Sea Level PressureIn,VisibilityMPH,Wind Direction,Wind SpeedMPH,Gust SpeedMPH,PrecipitationIn,Events,Conditions,WindDirDegrees,DateUTC
12:53 AM,70.0,62.1,76,30.21,10.0,North,5.8,-,N/A,,Clear,360,2013-06-22 04:53:00
1:53 AM,69.1,62.1,78,30.20,10.0,North,6.9,-,N/A,,Clear,360,2013-06-22 05:53:00
2:53 AM,68.0,61.0,78,30.19,10.0,NNE,8.1,-,N/A,,Clear,20,2013-06-22 06:53:00
3:53 AM,66.9,61.0,81,30.18,10.0,NNE,6.9,-,N/A,,Clear,20,2013-06-22 07:53:00
4:53 AM,66.0,60.1,81,30.19,10.0,NNE,9.2,-,N/A,,Clear,20,2013-06-22 08:53:00
5:53 AM,66.0,59.0,78,30.20,10.0,North,9.2,-,N/A,,Clear,10,2013-06-22 09:53:00
6:53 AM,66.9,59.0,76,30.21,10.0,NNE,9.2,-,N/A,,Clear,20,2013-06-22 10:53:00
7:53 AM,70.0,59.0,68,30.22,10.0,NNE,10.4,-,N/A,,Clear,30,2013-06-22 11:53:00
8:53 AM,73.0,60.1,64,30.22,10.0,ENE,9.2,-,N/A,,Clear,60,2013-06-22 12:53:00
9:53 AM,75.9,62.1,62,30.24,10.0,NE,6.9,-,N/A,,Clear,40,2013-06-22 13:53:00
10:53 AM,78.1,61.0,56,30.23,10.0,NE,8.1,-,N/A,,Clear,40,2013-06-22 14:53:00
11:53 AM,80.1,60.1,50,30.23,10.0,NE,8.1,-,N/A,,Scattered Clouds,40,2013-06-22 15:53:00
12:53 PM,80.1,60.1,50,30.22,10.0,Variable,3.5,-,N/A,,Clear,0,2013-06-22 16:53:00
1:53 PM,82.9,57.9,42,30.22,10.0,NNW,5.8,-,N/A,,Partly Cloudy,340,2013-06-22 17:53:00
2:53 PM,82.0,57.9,44,30.19,10.0,Variable,3.5,-,N/A,,Clear,0,2013-06-22 18:53:00
3:53 PM,84.9,60.1,43,30.17,10.0,ENE,6.9,-,N/A,,Scattered Clouds,60,2013-06-22 19:53:00
4:53 PM,84.9,59.0,41,30.14,10.0,Variable,4.6,-,N/A,,Clear,0,2013-06-22 20:53:00
5:53 PM,84.0,60.1,44,30.13,10.0,East,3.5,-,N/A,,Partly Cloudy,100,2013-06-22 21:53:00
6:53 PM,84.0,60.1,44,30.12,10.0,Calm,Calm,-,N/A,,Clear,0,2013-06-22 22:53:00
7:53 PM,82.0,62.1,51,30.12,10.0,SSE,5.8,-,N/A,,Clear,150,2013-06-22 23:53:00
8:53 PM,79.0,63.0,58,30.13,10.0,SSE,3.5,-,N/A,,Partly Cloudy,150,2013-06-23 00:53:00
9:53 PM,79.0,62.1,56,30.14,10.0,Calm,Calm,-,N/A,,Mostly Cloudy,0,2013-06-23 01:53:00
10:53 PM,80.1,62.1,54,30.16,10.0,Calm,Calm,-,N/A,,Clear,0,2013-06-23 02:53:00
11:53 PM,79.0,63.0,58,30.16,10.0,Calm,Calm,-,N/A,,Clear,0,2013-06-23 03:53:00